Location: Mentone
(34.5413°N, 85.5351°W)
Time: 05:13:04
(UTC-05:00)

Vanguard 3 - All Passes

Search period start: 24 April 2018 00:00
Search period end: 04 May 2018 00:00
Orbit: 508 x 3264 km, 33.3° (Epoch: 23 April)

Date Brightness Start Highest point End Pass type
(mag) Time Alt. Az. Time Alt. Az. Time Alt. Az.
24 Apr - 00:58:30 10° W 01:03:11 59° SSW 01:11:03 10° ESE night (unlit)
24 Apr - 03:09:50 10° W 03:15:41 29° SSW 03:24:53 10° SSE visible
24 Apr - 05:28:30 10° SW 05:29:31 10° SSW 05:30:34 10° SSW visible
24 Apr - 19:24:16 10° SSW 19:27:14 18° SSE 19:29:49 10° ESE daylight
24 Apr - 21:34:38 10° WSW 21:38:16 60° SSE 21:42:19 10° E visible
24 Apr - 23:45:34 10° W 23:49:34 71° S 23:55:37 10° ESE night (unlit)
25 Apr - 01:56:24 10° W 02:01:26 38° SSW 02:09:42 10° SE visible
25 Apr - 04:09:44 10° WSW 04:14:30 16° SSW 04:20:44 10° S visible
25 Apr - 18:12:34 10° S 18:13:39 11° SSE 18:14:38 10° SE daylight
25 Apr - 20:21:15 10° SW 20:25:02 38° SSE 20:28:29 10° E visible
25 Apr - 22:32:28 10° W 22:36:08 77° S 22:40:48 10° E visible
26 Apr - 00:43:17 10° W 00:47:36 49° SSW 00:54:27 10° ESE night (unlit)
26 Apr - 02:55:02 10° WSW 02:59:57 22° SSW 03:07:04 10° SSE visible
26 Apr - 19:07:44 10° SW 19:11:41 24° SSE 19:14:51 10° ESE daylight
26 Apr - 21:19:05 10° WSW 21:22:50 67° S 21:26:41 10° E visible
26 Apr - 23:30:16 10° W 23:34:04 63° S 23:39:28 10° ESE night (unlit)
27 Apr - 01:41:21 10° W 01:45:48 29° SSW 01:52:35 10° SE night (unlit)
27 Apr - 03:57:22 10° SW 03:58:43 10° SSW 04:00:12 10° SSW visible
27 Apr - 17:54:25 10° SSW 17:58:04 16° SSE 18:00:58 10° ESE daylight
27 Apr - 20:05:19 10° WSW 20:09:34 47° SSE 20:13:05 10° E visible
27 Apr - 22:17:03 10° W 22:20:42 75° S 22:24:59 10° E visible
28 Apr - 00:28:06 10° W 00:32:03 39° SSW 00:37:54 10° SE night (unlit)
28 Apr - 02:40:40 10° WSW 02:44:16 15° SSW 02:48:57 10° S visible
28 Apr - 16:42:19 10° S 16:44:06 11° SSE 16:45:43 10° SE daylight
28 Apr - 18:51:15 10° SW 18:56:10 32° SSE 18:59:45 10° E daylight
28 Apr - 21:03:27 10° W 21:07:24 72° S 21:11:07 10° E visible
28 Apr - 23:14:57 10° W 23:18:35 54° SSW 23:23:23 10° ESE night (unlit)
29 Apr - 01:26:29 10° WSW 01:30:13 21° SSW 01:35:24 10° SSE night (unlit)
29 Apr - 17:37:09 10° SSW 17:42:31 23° SSE 17:46:18 10° ESE daylight
29 Apr - 19:49:21 10° WSW 19:54:06 57° S 19:57:44 10° E visible
29 Apr - 22:01:35 10° W 22:05:16 70° S 22:09:15 10° ESE visible
30 Apr - 00:12:58 10° W 00:16:31 30° SSW 00:21:22 10° SE night (unlit)
30 Apr - 16:23:24 10° SSW 16:28:29 17° SSE 16:32:19 10° ESE daylight
30 Apr - 18:34:48 10° SW 18:40:38 41° SSE 18:44:35 10° E daylight
30 Apr - 20:47:44 10° W 20:51:59 76° S 20:55:37 10° E visible
30 Apr - 22:59:36 10° W 23:03:07 44° SSW 23:07:22 10° ESE visible
01 May - 01:11:57 10° WSW 01:14:39 15° SSW 01:17:58 10° SSE night (unlit)
01 May - 15:11:05 10° S 15:14:03 12° SSE 15:16:39 10° SE daylight
01 May - 17:20:03 10° SW 17:26:55 31° SSE 17:31:23 10° E daylight
01 May - 19:33:18 10° WSW 19:38:37 66° S 19:42:24 10° E daylight
01 May - 21:46:02 10° W 21:49:50 64° S 21:53:36 10° ESE visible
01 May - 23:57:55 10° WSW 00:00:59 22° SSW 00:04:49 10° SSE night (unlit)
02 May - 16:05:26 10° SSW 16:12:48 23° SSE 16:17:47 10° ESE daylight
02 May - 18:18:18 10° WSW 18:25:06 52° SSE 18:29:23 10° E daylight
02 May - 20:31:57 10° W 20:36:32 77° S 20:40:12 10° E visible
02 May - 22:44:14 10° W 22:47:37 35° SSW 22:51:23 10° SE visible
03 May - 14:51:30 10° S 14:58:16 17° SSE 15:03:20 10° ESE daylight
03 May - 17:03:00 10° SW 17:11:17 40° SSE 17:16:18 10° E daylight
03 May - 19:17:09 10° WSW 19:23:07 73° S 19:27:05 10° E daylight
03 May - 21:30:25 10° W 21:34:23 57° SSW 21:38:00 10° ESE visible
03 May - 23:43:02 10° WSW 23:45:26 16° SSW 23:48:10 10° SSE night (unlit)
